Year,Month,Day,Hour,Minute,Value (Times are PST for windgust in km/hr)
2022,04,04,00,24,3.20
2022,04,04,00,30,4.80
2022,04,04,00,31,6.40
2022,04,04,00,32,3.20
2022,04,04,00,35,3.20
2022,04,04,00,36,3.20
2022,04,04,00,37,3.20
2022,04,04,00,40,4.80
2022,04,04,00,41,3.20
2022,04,04,00,42,11.30
2022,04,04,00,43,6.40
2022,04,04,00,44,3.20
2022,04,04,00,46,3.20
2022,04,04,00,47,4.80
2022,04,04,00,48,3.20
2022,04,04,00,49,8.10
2022,04,04,00,50,9.60
2022,04,04,00,51,6.40
2022,04,04,00,52,6.40
2022,04,04,00,53,8.10
2022,04,04,00,54,9.60
2022,04,04,00,55,8.10
2022,04,04,00,56,6.40
2022,04,04,00,57,6.40
2022,04,04,00,58,11.30
2022,04,04,00,59,11.30
2022,04,04,01,00,8.10
2022,04,04,01,01,6.40
2022,04,04,01,02,11.30
2022,04,04,01,03,11.30
2022,04,04,01,04,9.60
2022,04,04,01,05,6.40
2022,04,04,01,06,8.10
2022,04,04,01,07,8.10
2022,04,04,01,08,11.30
2022,04,04,01,09,16.10
2022,04,04,01,10,14.50
2022,04,04,01,11,3.20
2022,04,04,01,13,14.50
2022,04,04,01,14,9.60
2022,04,04,01,15,8.10
2022,04,04,01,16,12.90
2022,04,04,01,17,19.30
2022,04,04,01,18,6.40
2022,04,04,01,19,19.30
2022,04,04,01,20,19.30
2022,04,04,01,21,9.60
2022,04,04,01,22,6.40
2022,04,04,01,23,6.40
2022,04,04,01,24,4.80
2022,04,04,01,25,8.10
2022,04,04,01,26,4.80
2022,04,04,01,27,4.80
2022,04,04,01,28,8.10
2022,04,04,01,29,3.20
2022,04,04,01,30,8.10
2022,04,04,01,31,14.50
2022,04,04,01,32,11.30
2022,04,04,01,33,6.40
2022,04,04,01,34,8.10
2022,04,04,01,35,11.30
2022,04,04,01,36,6.40
2022,04,04,01,37,8.10
2022,04,04,01,38,4.80
2022,04,04,01,39,11.30
2022,04,04,01,40,8.10
2022,04,04,01,41,9.60
2022,04,04,01,42,11.30
2022,04,04,01,43,4.80
2022,04,04,01,44,4.80
2022,04,04,01,45,9.60
2022,04,04,01,46,8.10
2022,04,04,01,47,4.80
2022,04,04,01,48,16.10
2022,04,04,01,49,11.30
2022,04,04,01,50,6.40
2022,04,04,01,51,4.80
2022,04,04,01,52,9.60
2022,04,04,01,53,6.40
2022,04,04,01,54,8.10
2022,04,04,01,55,9.60
2022,04,04,01,56,4.80
2022,04,04,01,57,3.20
2022,04,04,01,58,6.40
2022,04,04,01,59,14.50
2022,04,04,02,00,11.30
2022,04,04,02,01,11.30
2022,04,04,02,02,9.60
2022,04,04,02,03,4.80
2022,04,04,02,04,3.20
2022,04,04,02,05,3.20
2022,04,04,02,06,1.60
2022,04,04,02,08,8.10
2022,04,04,02,09,9.60
2022,04,04,02,10,9.60
2022,04,04,02,11,6.40
2022,04,04,02,15,1.60
2022,04,04,02,16,1.60
2022,04,04,02,17,9.60
2022,04,04,02,18,3.20
2022,04,04,02,20,6.40
2022,04,04,02,22,6.40
2022,04,04,02,23,14.50
2022,04,04,02,24,6.40
2022,04,04,02,26,4.80
2022,04,04,02,28,1.60
2022,04,04,02,29,11.30
2022,04,04,02,30,6.40
2022,04,04,02,31,3.20
2022,04,04,02,32,1.60
2022,04,04,02,33,3.20
2022,04,04,02,34,3.20
2022,04,04,02,35,4.80
2022,04,04,02,36,3.20
2022,04,04,02,37,3.20
2022,04,04,02,39,6.40
2022,04,04,02,40,6.40
2022,04,04,02,41,11.30
2022,04,04,02,42,11.30
2022,04,04,02,43,19.30
2022,04,04,02,44,12.90
2022,04,04,02,45,16.10
2022,04,04,02,46,17.70
2022,04,04,02,47,11.30
2022,04,04,02,48,4.80
2022,04,04,02,49,11.30
2022,04,04,02,50,9.60
2022,04,04,02,51,8.10
2022,04,04,02,52,20.90
2022,04,04,02,53,22.50
2022,04,04,02,54,27.40
2022,04,04,02,55,14.50
2022,04,04,02,56,8.10
2022,04,04,02,57,14.50
2022,04,04,02,58,8.10
2022,04,04,02,59,8.10
2022,04,04,03,00,6.40
2022,04,04,03,01,14.50
2022,04,04,03,02,8.10
2022,04,04,03,03,4.80
2022,04,04,03,04,14.50
2022,04,04,03,05,22.50
2022,04,04,03,06,29.00
2022,04,04,03,07,17.70
2022,04,04,03,08,17.70
2022,04,04,03,09,9.60
2022,04,04,03,10,1.60
2022,04,04,03,11,27.40
2022,04,04,03,12,25.70
2022,04,04,03,13,20.90
2022,04,04,03,14,14.50
2022,04,04,03,15,11.30
2022,04,04,03,16,8.10
2022,04,04,03,17,16.10
2022,04,04,03,18,9.60
2022,04,04,03,19,11.30
2022,04,04,03,20,25.70
2022,04,04,03,21,29.00
2022,04,04,03,22,22.50
2022,04,04,03,23,38.60
2022,04,04,03,24,29.00
2022,04,04,03,25,29.00
2022,04,04,03,26,24.20
2022,04,04,03,27,17.70
2022,04,04,03,28,19.30
2022,04,04,03,29,9.60
2022,04,04,03,30,17.70
2022,04,04,03,31,9.60
2022,04,04,03,32,4.80
2022,04,04,03,33,11.30
2022,04,04,03,34,6.40
2022,04,04,03,35,24.20
2022,04,04,03,36,24.20
2022,04,04,03,37,20.90
2022,04,04,03,38,8.10
2022,04,04,03,39,12.90
2022,04,04,03,40,16.10
2022,04,04,03,41,20.90
2022,04,04,03,42,8.10
2022,04,04,03,43,1.60
2022,04,04,03,44,8.10
2022,04,04,03,45,8.10
2022,04,04,03,46,14.50
2022,04,04,03,47,17.70
2022,04,04,03,48,11.30
2022,04,04,03,49,24.20
2022,04,04,03,50,25.70
2022,04,04,03,51,19.30
2022,04,04,03,52,20.90
2022,04,04,03,53,19.30
2022,04,04,03,54,11.30
2022,04,04,03,55,32.20
2022,04,04,03,56,16.10
2022,04,04,03,57,27.40
2022,04,04,03,58,14.50
2022,04,04,03,59,11.30
2022,04,04,04,00,17.70
2022,04,04,04,01,11.30
2022,04,04,04,02,9.60
2022,04,04,04,03,14.50
2022,04,04,04,04,17.70
2022,04,04,04,05,25.70
2022,04,04,04,06,38.60
2022,04,04,04,07,32.20
2022,04,04,04,08,35.40
2022,04,04,04,09,32.20
2022,04,04,04,10,17.70
2022,04,04,04,11,30.60
2022,04,04,04,12,17.70
2022,04,04,04,13,19.30
2022,04,04,04,14,27.40
2022,04,04,04,15,14.50
2022,04,04,04,16,8.10
2022,04,04,04,17,14.50
2022,04,04,04,18,14.50
2022,04,04,04,19,8.10
2022,04,04,04,20,19.30
2022,04,04,04,21,22.50
2022,04,04,04,22,16.10
2022,04,04,04,23,16.10
2022,04,04,04,24,9.60
2022,04,04,04,25,14.50
2022,04,04,04,26,16.10
2022,04,04,04,27,6.40
2022,04,04,04,28,20.90
2022,04,04,04,29,30.60
2022,04,04,04,30,25.70
2022,04,04,04,31,25.70
2022,04,04,04,32,27.40
2022,04,04,04,33,17.70
2022,04,04,04,34,9.60
2022,04,04,04,35,11.30
2022,04,04,04,36,9.60
2022,04,04,04,37,14.50
2022,04,04,04,38,17.70
2022,04,04,04,39,17.70
2022,04,04,04,40,25.70
2022,04,04,04,41,22.50
2022,04,04,04,42,19.30
2022,04,04,04,43,8.10
2022,04,04,04,44,22.50
2022,04,04,04,45,11.30
2022,04,04,04,46,19.30
2022,04,04,04,47,22.50
2022,04,04,04,48,14.50
2022,04,04,04,49,14.50
2022,04,04,04,50,25.70
2022,04,04,04,51,20.90
2022,04,04,04,52,17.70
2022,04,04,04,53,29.00
2022,04,04,04,54,30.60
2022,04,04,04,55,29.00
2022,04,04,04,56,6.40
2022,04,04,04,57,9.60
2022,04,04,04,58,27.40
2022,04,04,04,59,25.70
2022,04,04,05,00,35.40
2022,04,04,05,01,32.20
2022,04,04,05,02,25.70
2022,04,04,05,03,29.00
2022,04,04,05,04,17.70
2022,04,04,05,05,20.90
2022,04,04,05,06,6.40
2022,04,04,05,07,17.70
2022,04,04,05,08,25.70
2022,04,04,05,09,20.90
2022,04,04,05,10,29.00
2022,04,04,05,11,30.60
2022,04,04,05,12,38.60
2022,04,04,05,13,35.40
2022,04,04,05,14,22.50
2022,04,04,05,15,20.90
2022,04,04,05,16,17.70
2022,04,04,05,17,22.50
2022,04,04,05,18,14.50
2022,04,04,05,19,20.90
2022,04,04,05,20,17.70
2022,04,04,05,21,17.70
2022,04,04,05,22,20.90
2022,04,04,05,23,24.20
2022,04,04,05,24,27.40
2022,04,04,05,25,25.70
2022,04,04,05,26,29.00
2022,04,04,05,27,24.20
2022,04,04,05,28,22.50
2022,04,04,05,29,11.30
2022,04,04,05,30,8.10
2022,04,04,05,31,14.50
2022,04,04,05,32,27.40
2022,04,04,05,33,27.40
2022,04,04,05,34,24.20
2022,04,04,05,35,20.90
2022,04,04,05,36,17.70
2022,04,04,05,37,16.10
2022,04,04,05,38,20.90
2022,04,04,05,39,17.70
2022,04,04,05,40,16.10
2022,04,04,05,41,17.70
2022,04,04,05,42,25.70
2022,04,04,05,43,17.70
2022,04,04,05,44,16.10
2022,04,04,05,45,32.20
2022,04,04,05,46,25.70
2022,04,04,05,47,35.40
2022,04,04,05,48,22.50
2022,04,04,05,49,27.40
2022,04,04,05,50,27.40
2022,04,04,05,51,20.90
2022,04,04,05,52,9.60
2022,04,04,05,53,14.50
2022,04,04,05,54,25.70
2022,04,04,05,55,20.90
2022,04,04,05,56,27.40
2022,04,04,05,57,27.40
2022,04,04,05,58,33.80
2022,04,04,05,59,25.70
2022,04,04,06,00,24.20
2022,04,04,06,01,19.30
2022,04,04,06,02,25.70
2022,04,04,06,03,20.90
2022,04,04,06,04,20.90
2022,04,04,06,05,14.50
2022,04,04,06,06,17.70
2022,04,04,06,07,14.50
2022,04,04,06,08,6.40
2022,04,04,06,09,16.10
2022,04,04,06,10,14.50
2022,04,04,06,11,9.60
2022,04,04,06,12,8.10
2022,04,04,06,13,16.10
2022,04,04,06,14,19.30
2022,04,04,06,15,8.10
2022,04,04,06,16,9.60
2022,04,04,06,17,27.40
2022,04,04,06,18,11.30
2022,04,04,06,19,14.50
2022,04,04,06,20,8.10
2022,04,04,06,21,4.80
2022,04,04,06,22,9.60
2022,04,04,06,23,8.10
2022,04,04,06,24,25.70
2022,04,04,06,25,16.10
2022,04,04,06,26,22.50
2022,04,04,06,27,25.70
2022,04,04,06,28,20.90
2022,04,04,06,29,17.70
2022,04,04,06,30,9.60
2022,04,04,06,31,8.10
2022,04,04,06,32,24.20
2022,04,04,06,33,22.50
2022,04,04,06,34,9.60
2022,04,04,06,35,9.60
2022,04,04,06,36,16.10
2022,04,04,06,37,25.70
2022,04,04,06,38,19.30
2022,04,04,06,39,16.10
2022,04,04,06,40,14.50
2022,04,04,06,41,9.60
2022,04,04,06,42,20.90
2022,04,04,06,43,19.30
2022,04,04,06,44,25.70
2022,04,04,06,45,27.40
2022,04,04,06,46,17.70
2022,04,04,06,47,27.40
2022,04,04,06,48,17.70
2022,04,04,06,49,19.30
2022,04,04,06,50,17.70
2022,04,04,06,51,20.90
2022,04,04,06,52,16.10
2022,04,04,06,53,17.70
2022,04,04,06,54,14.50
2022,04,04,06,55,16.10
2022,04,04,06,56,19.30
2022,04,04,06,57,24.20
2022,04,04,06,58,11.30
2022,04,04,06,59,19.30
2022,04,04,07,00,17.70
2022,04,04,07,01,19.30
2022,04,04,07,02,29.00
2022,04,04,07,03,17.70
2022,04,04,07,04,19.30
2022,04,04,07,05,33.80
2022,04,04,07,06,17.70
2022,04,04,07,07,11.30
2022,04,04,07,08,16.10
2022,04,04,07,09,19.30
2022,04,04,07,10,16.10
2022,04,04,07,11,14.50
2022,04,04,07,12,20.90
2022,04,04,07,13,24.20
2022,04,04,07,14,14.50
2022,04,04,07,15,27.40
2022,04,04,07,16,19.30
2022,04,04,07,17,12.90
2022,04,04,07,18,20.90
2022,04,04,07,19,29.00
2022,04,04,07,20,29.00
2022,04,04,07,21,14.50
2022,04,04,07,22,22.50
2022,04,04,07,23,16.10
2022,04,04,07,24,9.60
2022,04,04,07,25,14.50
2022,04,04,07,26,14.50
2022,04,04,07,27,12.90
2022,04,04,07,28,8.10
2022,04,04,07,29,11.30
2022,04,04,07,30,17.70
2022,04,04,07,31,17.70
2022,04,04,07,32,4.80
2022,04,04,07,33,24.20
2022,04,04,07,34,8.10
2022,04,04,07,35,9.60
2022,04,04,07,36,4.80
2022,04,04,07,37,11.30
2022,04,04,07,38,19.30
2022,04,04,07,39,20.90
2022,04,04,07,40,19.30
2022,04,04,07,41,9.60
2022,04,04,07,42,24.20
2022,04,04,07,43,24.20
2022,04,04,07,44,17.70
2022,04,04,07,45,17.70
2022,04,04,07,46,11.30
2022,04,04,07,47,20.90
2022,04,04,07,48,14.50
2022,04,04,07,49,9.60
2022,04,04,07,50,19.30
2022,04,04,07,51,19.30
2022,04,04,07,52,27.40
2022,04,04,07,53,19.30
2022,04,04,07,54,9.60
2022,04,04,07,55,4.80
2022,04,04,07,56,14.50
2022,04,04,07,57,17.70
2022,04,04,07,58,16.10
2022,04,04,07,59,9.60
2022,04,04,08,00,16.10
2022,04,04,08,01,14.50
2022,04,04,08,02,9.60
2022,04,04,08,03,4.80
2022,04,04,08,04,3.20
2022,04,04,08,05,6.40
2022,04,04,08,06,16.10
2022,04,04,08,07,12.90
2022,04,04,08,08,16.10
2022,04,04,08,09,25.70
2022,04,04,08,10,19.30
2022,04,04,08,11,14.50
2022,04,04,08,12,11.30
2022,04,04,08,13,17.70
2022,04,04,08,14,11.30
2022,04,04,08,15,16.10
2022,04,04,08,16,11.30
2022,04,04,08,17,9.60
2022,04,04,08,18,11.30
2022,04,04,08,19,6.40
2022,04,04,08,20,25.70
2022,04,04,08,21,20.90
2022,04,04,08,22,22.50
2022,04,04,08,23,11.30
2022,04,04,08,24,14.50
2022,04,04,08,25,25.70
2022,04,04,08,26,19.30
2022,04,04,08,27,25.70
2022,04,04,08,28,25.70
2022,04,04,08,29,9.60
2022,04,04,08,30,22.50
2022,04,04,08,31,16.10
2022,04,04,08,32,24.20
2022,04,04,08,33,27.40
2022,04,04,08,34,17.70
2022,04,04,08,35,16.10
2022,04,04,08,36,16.10
2022,04,04,08,37,9.60
2022,04,04,08,38,20.90
2022,04,04,08,39,20.90
2022,04,04,08,40,20.90
2022,04,04,08,41,25.70
2022,04,04,08,42,30.60
2022,04,04,08,43,22.50
2022,04,04,08,44,22.50
2022,04,04,08,45,19.30
2022,04,04,08,46,8.10
2022,04,04,08,47,6.40
2022,04,04,08,48,20.90
2022,04,04,08,49,25.70
2022,04,04,08,50,16.10
2022,04,04,08,51,22.50
2022,04,04,08,52,16.10
2022,04,04,08,53,9.60
2022,04,04,08,54,17.70
2022,04,04,08,55,11.30
2022,04,04,08,56,9.60
2022,04,04,08,57,9.60
2022,04,04,08,58,11.30
2022,04,04,08,59,14.50
2022,04,04,09,00,6.40
2022,04,04,09,01,11.30
2022,04,04,09,02,9.60
2022,04,04,09,03,19.30
2022,04,04,09,04,14.50
2022,04,04,09,05,11.30
2022,04,04,09,06,16.10
2022,04,04,09,07,14.50
2022,04,04,09,08,35.40
2022,04,04,09,09,30.60
2022,04,04,09,10,19.30
2022,04,04,09,11,16.10
2022,04,04,09,12,19.30
2022,04,04,09,13,16.10
2022,04,04,09,14,11.30
2022,04,04,09,15,19.30
2022,04,04,09,16,32.20
2022,04,04,09,17,38.60
2022,04,04,09,18,30.60
2022,04,04,09,19,25.70
2022,04,04,09,20,16.10
2022,04,04,09,21,11.30
2022,04,04,09,22,17.70
2022,04,04,09,23,12.90
2022,04,04,09,24,16.10
2022,04,04,09,25,17.70
2022,04,04,09,26,9.60
2022,04,04,09,27,20.90
2022,04,04,09,28,14.50
2022,04,04,09,29,12.90
2022,04,04,09,30,24.20
2022,04,04,09,31,20.90
2022,04,04,09,32,22.50
2022,04,04,09,33,16.10
2022,04,04,09,34,14.50
2022,04,04,09,35,17.70
2022,04,04,09,36,17.70
2022,04,04,09,37,20.90
2022,04,04,09,38,8.10
2022,04,04,09,39,9.60
2022,04,04,09,40,3.20
2022,04,04,09,41,3.20
2022,04,04,09,42,3.20
2022,04,04,09,43,22.50
2022,04,04,09,44,27.40
2022,04,04,09,45,19.30
2022,04,04,09,46,29.00
2022,04,04,09,47,17.70
2022,04,04,09,48,30.60
2022,04,04,09,49,24.20
2022,04,04,09,50,16.10
2022,04,04,09,51,12.90
2022,04,04,09,52,29.00
2022,04,04,09,53,25.70
2022,04,04,09,54,25.70
2022,04,04,09,55,27.40
2022,04,04,09,56,22.50
2022,04,04,09,57,25.70
2022,04,04,09,58,11.30
2022,04,04,09,59,22.50
2022,04,04,10,00,16.10
2022,04,04,10,01,8.10
2022,04,04,10,02,24.20
2022,04,04,10,03,11.30
2022,04,04,10,04,9.60
2022,04,04,10,05,14.50
2022,04,04,10,06,20.90
2022,04,04,10,07,8.10
2022,04,04,10,08,19.30
2022,04,04,10,09,14.50
2022,04,04,10,10,22.50
2022,04,04,10,11,24.20
2022,04,04,10,12,24.20
2022,04,04,10,13,16.10
2022,04,04,10,14,16.10
2022,04,04,10,15,14.50
2022,04,04,10,16,16.10
2022,04,04,10,17,22.50
2022,04,04,10,18,27.40
2022,04,04,10,19,27.40
2022,04,04,10,20,40.20
2022,04,04,10,21,11.30
2022,04,04,10,22,37.00
2022,04,04,10,23,20.90
2022,04,04,10,24,32.20
2022,04,04,10,25,24.20
2022,04,04,10,26,27.40
2022,04,04,10,27,24.20
2022,04,04,10,28,16.10
2022,04,04,10,29,17.70
2022,04,04,10,30,20.90
2022,04,04,10,31,25.70
2022,04,04,10,32,16.10
2022,04,04,10,33,24.20
2022,04,04,10,34,22.50
2022,04,04,10,35,33.80
2022,04,04,10,36,16.10
2022,04,04,10,37,22.50
2022,04,04,10,38,17.70
2022,04,04,10,39,14.50
2022,04,04,10,40,8.10
2022,04,04,10,41,8.10
2022,04,04,10,42,20.90
2022,04,04,10,43,27.40
2022,04,04,10,44,27.40
2022,04,04,10,45,30.60
2022,04,04,10,46,24.20
2022,04,04,10,47,32.20
2022,04,04,10,48,11.30
2022,04,04,10,49,17.70
2022,04,04,10,50,8.10
2022,04,04,10,51,6.40
2022,04,04,10,52,22.50
2022,04,04,10,53,16.10
2022,04,04,10,54,20.90
2022,04,04,10,55,25.70
2022,04,04,10,56,19.30
2022,04,04,10,57,32.20
2022,04,04,10,58,25.70
2022,04,04,10,59,40.20
2022,04,04,11,00,46.70
2022,04,04,11,01,35.40
2022,04,04,11,02,33.80
2022,04,04,11,03,43.50
2022,04,04,11,04,43.50
2022,04,04,11,05,30.60
2022,04,04,11,06,38.60
2022,04,04,11,07,20.90
2022,04,04,11,08,30.60
2022,04,04,11,09,30.60
2022,04,04,11,10,30.60
2022,04,04,11,11,29.00
2022,04,04,11,12,29.00
2022,04,04,11,13,14.50
2022,04,04,11,14,17.70
2022,04,04,11,15,20.90
2022,04,04,11,16,35.40
2022,04,04,11,17,25.70
2022,04,04,11,18,30.60
2022,04,04,11,19,17.70
2022,04,04,11,20,38.60
2022,04,04,11,21,29.00
2022,04,04,11,22,40.20
2022,04,04,11,23,33.80
2022,04,04,11,24,38.60
2022,04,04,11,25,33.80
2022,04,04,11,26,35.40
2022,04,04,11,27,37.00
2022,04,04,11,28,20.90
2022,04,04,11,29,19.30
2022,04,04,11,30,29.00
2022,04,04,11,31,17.70
2022,04,04,11,32,37.00
2022,04,04,11,33,22.50
2022,04,04,11,34,35.40
2022,04,04,11,35,29.00
2022,04,04,11,36,33.80
2022,04,04,11,37,27.40
2022,04,04,11,38,33.80
2022,04,04,11,39,25.70
2022,04,04,11,40,24.20
2022,04,04,11,41,40.20
2022,04,04,11,42,30.60
2022,04,04,11,43,29.00
2022,04,04,11,44,27.40
2022,04,04,11,45,30.60
2022,04,04,11,46,27.40
2022,04,04,11,47,19.30
2022,04,04,11,48,29.00
2022,04,04,11,49,41.80
2022,04,04,11,50,17.70
2022,04,04,11,51,24.20
2022,04,04,11,52,19.30
2022,04,04,11,53,20.90
2022,04,04,11,54,35.40
2022,04,04,11,55,27.40
2022,04,04,11,56,29.00
2022,04,04,11,57,29.00
2022,04,04,11,58,37.00
2022,04,04,11,59,25.70
2022,04,04,12,00,32.20
2022,04,04,12,01,20.90
2022,04,04,12,02,30.60
2022,04,04,12,03,24.20
2022,04,04,12,04,30.60
2022,04,04,12,05,20.90
2022,04,04,12,06,11.30
2022,04,04,12,07,16.10
2022,04,04,12,08,22.50
2022,04,04,12,09,20.90
2022,04,04,12,10,22.50
2022,04,04,12,11,14.50
2022,04,04,12,12,9.60
2022,04,04,12,13,12.90
2022,04,04,12,14,11.30
2022,04,04,12,15,9.60
2022,04,04,12,16,16.10
2022,04,04,12,17,8.10
2022,04,04,12,18,14.50
2022,04,04,12,19,20.90
2022,04,04,12,20,22.50
2022,04,04,12,21,17.70
2022,04,04,12,22,11.30
2022,04,04,12,23,11.30
2022,04,04,12,24,14.50
2022,04,04,12,25,16.10
2022,04,04,12,26,14.50
2022,04,04,12,27,4.80
2022,04,04,12,28,6.40
2022,04,04,12,29,8.10
2022,04,04,12,30,16.10
2022,04,04,12,31,19.30
2022,04,04,12,32,16.10
2022,04,04,12,33,20.90
2022,04,04,12,34,14.50
2022,04,04,12,35,8.10
2022,04,04,12,36,20.90
2022,04,04,12,37,22.50
2022,04,04,12,38,24.20
2022,04,04,12,39,33.80
2022,04,04,12,40,24.20
2022,04,04,12,41,25.70
2022,04,04,12,42,27.40
2022,04,04,12,43,32.20
2022,04,04,12,44,20.90
2022,04,04,12,45,24.20
2022,04,04,12,46,32.20
2022,04,04,12,47,20.90
2022,04,04,12,48,25.70
2022,04,04,12,49,20.90
2022,04,04,12,50,20.90
2022,04,04,12,51,24.20
2022,04,04,12,52,43.50
2022,04,04,12,53,29.00
2022,04,04,12,54,20.90
2022,04,04,12,55,16.10
2022,04,04,12,56,17.70
2022,04,04,12,57,24.20
2022,04,04,12,58,14.50
2022,04,04,12,59,25.70
2022,04,04,13,00,19.30
2022,04,04,13,01,17.70
2022,04,04,13,02,30.60
2022,04,04,13,03,32.20
2022,04,04,13,04,27.40
2022,04,04,13,05,6.40
2022,04,04,13,06,14.50
2022,04,04,13,07,17.70
2022,04,04,13,08,8.10
2022,04,04,13,09,8.10
2022,04,04,13,10,22.50
2022,04,04,13,11,17.70
2022,04,04,13,12,17.70
2022,04,04,13,13,20.90
2022,04,04,13,14,24.20
2022,04,04,13,15,19.30
2022,04,04,13,16,16.10
2022,04,04,13,17,17.70
2022,04,04,13,18,8.10
2022,04,04,13,19,19.30
2022,04,04,13,20,11.30
2022,04,04,13,21,17.70
2022,04,04,13,22,19.30
2022,04,04,13,23,30.60
2022,04,04,13,24,29.00
2022,04,04,13,25,16.10
2022,04,04,13,26,20.90
2022,04,04,13,27,20.90
2022,04,04,13,28,19.30
2022,04,04,13,29,22.50
2022,04,04,13,30,35.40
2022,04,04,13,31,9.60
2022,04,04,13,32,29.00
2022,04,04,13,33,20.90
2022,04,04,13,34,22.50
2022,04,04,13,35,16.10
2022,04,04,13,36,20.90
2022,04,04,13,37,22.50
2022,04,04,13,38,16.10
2022,04,04,13,39,11.30
2022,04,04,13,40,22.50
2022,04,04,13,41,20.90
2022,04,04,13,42,20.90
2022,04,04,13,43,22.50
2022,04,04,13,44,29.00
2022,04,04,13,45,14.50
2022,04,04,13,46,30.60
2022,04,04,13,47,12.90
2022,04,04,13,48,22.50
2022,04,04,13,49,35.40
2022,04,04,13,50,30.60
2022,04,04,13,51,19.30
2022,04,04,13,52,19.30
2022,04,04,13,53,19.30
2022,04,04,13,54,11.30
2022,04,04,13,55,16.10
2022,04,04,13,56,43.50
2022,04,04,13,57,35.40
2022,04,04,13,58,49.90
2022,04,04,13,59,49.90
2022,04,04,14,00,45.10
2022,04,04,14,01,32.20
2022,04,04,14,02,14.50
2022,04,04,14,03,9.60
2022,04,04,14,04,16.10
2022,04,04,14,05,12.90
2022,04,04,14,06,25.70
2022,04,04,14,07,19.30
2022,04,04,14,08,32.20
2022,04,04,14,09,30.60
2022,04,04,14,10,29.00
2022,04,04,14,11,17.70
2022,04,04,14,12,19.30
2022,04,04,14,13,16.10
2022,04,04,14,14,6.40
2022,04,04,14,15,20.90
2022,04,04,14,16,22.50
2022,04,04,14,17,20.90
2022,04,04,14,18,22.50
2022,04,04,14,19,27.40
2022,04,04,14,20,40.20
2022,04,04,14,21,35.40
2022,04,04,14,22,22.50
2022,04,04,14,23,19.30
2022,04,04,14,24,32.20
2022,04,04,14,25,37.00
2022,04,04,14,26,16.10
2022,04,04,14,27,16.10
2022,04,04,14,28,20.90
2022,04,04,14,29,30.60
2022,04,04,14,30,29.00
2022,04,04,14,31,25.70
2022,04,04,14,32,9.60
2022,04,04,14,33,20.90
2022,04,04,14,34,16.10
2022,04,04,14,35,25.70
2022,04,04,14,36,19.30
2022,04,04,14,37,29.00
2022,04,04,14,38,25.70
2022,04,04,14,39,29.00
2022,04,04,14,40,27.40
2022,04,04,14,41,19.30
2022,04,04,14,42,33.80
2022,04,04,14,43,25.70
2022,04,04,14,44,33.80
2022,04,04,14,45,30.60
2022,04,04,14,46,29.00
2022,04,04,14,47,20.90
2022,04,04,14,48,30.60
2022,04,04,14,49,24.20
2022,04,04,14,50,24.20
2022,04,04,14,51,16.10
2022,04,04,14,52,33.80
2022,04,04,14,53,16.10
2022,04,04,14,54,20.90
2022,04,04,14,55,17.70
2022,04,04,14,56,20.90
2022,04,04,14,57,32.20
2022,04,04,14,58,35.40
2022,04,04,14,59,24.20
2022,04,04,15,00,24.20
2022,04,04,15,01,20.90
2022,04,04,15,02,16.10
2022,04,04,15,03,20.90
2022,04,04,15,04,16.10
2022,04,04,15,05,19.30
2022,04,04,15,06,19.30
2022,04,04,15,07,19.30
2022,04,04,15,08,22.50
2022,04,04,15,09,24.20
2022,04,04,15,10,35.40
2022,04,04,15,11,32.20
2022,04,04,15,12,27.40
2022,04,04,15,13,30.60
2022,04,04,15,14,30.60
2022,04,04,15,15,29.00
2022,04,04,15,16,35.40
2022,04,04,15,17,41.80
2022,04,04,15,18,24.20
2022,04,04,15,19,16.10
2022,04,04,15,20,11.30
2022,04,04,15,21,30.60
2022,04,04,15,22,17.70
2022,04,04,15,23,30.60
2022,04,04,15,24,41.80
2022,04,04,15,25,40.20
2022,04,04,15,26,29.00
2022,04,04,15,27,51.50
2022,04,04,15,28,22.50
2022,04,04,15,29,32.20
2022,04,04,15,30,30.60
2022,04,04,15,31,37.00
2022,04,04,15,32,17.70
2022,04,04,15,33,45.10
2022,04,04,15,34,33.80
2022,04,04,15,35,30.60
2022,04,04,15,36,17.70
2022,04,04,15,37,38.60
2022,04,04,15,38,30.60
2022,04,04,15,39,20.90
2022,04,04,15,40,29.00
2022,04,04,15,41,24.20
2022,04,04,15,42,17.70
2022,04,04,15,43,33.80
2022,04,04,15,44,25.70
2022,04,04,15,45,25.70
2022,04,04,15,46,24.20
2022,04,04,15,47,11.30
2022,04,04,15,48,22.50
2022,04,04,15,49,27.40
2022,04,04,15,50,20.90
2022,04,04,15,51,16.10
2022,04,04,15,52,17.70
2022,04,04,15,53,20.90
2022,04,04,15,54,37.00
2022,04,04,15,55,24.20
2022,04,04,15,56,16.10
2022,04,04,15,57,35.40
2022,04,04,15,58,20.90
2022,04,04,15,59,25.70
2022,04,04,16,00,19.30
2022,04,04,16,01,24.20
2022,04,04,16,02,17.70
2022,04,04,16,03,33.80
2022,04,04,16,04,20.90
2022,04,04,16,05,22.50
2022,04,04,16,06,27.40
2022,04,04,16,07,30.60
2022,04,04,16,08,29.00
2022,04,04,16,09,33.80
2022,04,04,16,10,35.40
2022,04,04,16,11,32.20
2022,04,04,16,12,20.90
2022,04,04,16,13,41.80
2022,04,04,16,14,45.10
2022,04,04,16,15,37.00
2022,04,04,16,16,25.70
2022,04,04,16,17,35.40
2022,04,04,16,18,32.20
2022,04,04,16,19,32.20
2022,04,04,16,20,22.50
2022,04,04,16,21,17.70
2022,04,04,16,22,41.80
2022,04,04,16,23,40.20
2022,04,04,16,24,20.90
2022,04,04,16,25,25.70
2022,04,04,16,26,33.80
2022,04,04,16,27,33.80
2022,04,04,16,28,48.30
2022,04,04,16,29,32.20
2022,04,04,16,30,33.80
2022,04,04,16,31,16.10
2022,04,04,16,32,22.50
2022,04,04,16,33,29.00
2022,04,04,16,34,29.00
2022,04,04,16,35,20.90
2022,04,04,16,36,19.30
2022,04,04,16,37,22.50
2022,04,04,16,38,25.70
2022,04,04,16,39,30.60
2022,04,04,16,40,29.00
2022,04,04,16,41,32.20
2022,04,04,16,42,22.50
2022,04,04,16,43,22.50
2022,04,04,16,44,22.50
2022,04,04,16,45,41.80
2022,04,04,16,46,33.80
2022,04,04,16,47,41.80
2022,04,04,16,48,30.60
2022,04,04,16,49,27.40
2022,04,04,16,50,12.90
2022,04,04,16,51,6.40
2022,04,04,16,52,9.60
2022,04,04,16,53,33.80
2022,04,04,16,54,22.50
2022,04,04,16,55,14.50
2022,04,04,16,56,16.10
2022,04,04,16,57,29.00
2022,04,04,16,58,16.10
2022,04,04,16,59,17.70
2022,04,04,17,00,14.50
2022,04,04,17,01,25.70
2022,04,04,17,02,29.00
2022,04,04,17,03,11.30
2022,04,04,17,04,20.90
2022,04,04,17,05,32.20
2022,04,04,17,06,19.30
2022,04,04,17,07,22.50
2022,04,04,17,08,22.50
2022,04,04,17,09,35.40
2022,04,04,17,10,37.00
2022,04,04,17,11,30.60
2022,04,04,17,12,11.30
2022,04,04,17,13,29.00
2022,04,04,17,14,24.20
2022,04,04,17,15,27.40
2022,04,04,17,16,24.20
2022,04,04,17,17,24.20
2022,04,04,17,18,30.60
2022,04,04,17,19,30.60
2022,04,04,17,20,33.80
2022,04,04,17,21,33.80
2022,04,04,17,22,20.90
2022,04,04,17,23,33.80
2022,04,04,17,24,38.60
2022,04,04,17,25,35.40
2022,04,04,17,26,37.00
2022,04,04,17,27,37.00
2022,04,04,17,28,40.20
2022,04,04,17,29,30.60
2022,04,04,17,30,12.90
2022,04,04,17,31,17.70
2022,04,04,17,32,25.70
2022,04,04,17,33,35.40
2022,04,04,17,34,43.50
2022,04,04,17,35,20.90
2022,04,04,17,36,30.60
2022,04,04,17,37,25.70
2022,04,04,17,38,25.70
2022,04,04,17,39,20.90
2022,04,04,17,40,16.10
2022,04,04,17,41,17.70
2022,04,04,17,42,11.30
2022,04,04,17,43,27.40
2022,04,04,17,44,40.20
2022,04,04,17,45,35.40
2022,04,04,17,46,32.20
2022,04,04,17,47,25.70
2022,04,04,17,48,20.90
2022,04,04,17,49,16.10
2022,04,04,17,50,17.70
2022,04,04,17,51,17.70
2022,04,04,17,52,12.90
2022,04,04,17,53,46.70
2022,04,04,17,54,41.80
2022,04,04,17,55,25.70
2022,04,04,17,56,35.40
2022,04,04,17,57,24.20
2022,04,04,17,58,24.20
2022,04,04,17,59,20.90
2022,04,04,18,00,27.40
2022,04,04,18,01,19.30
2022,04,04,18,02,16.10
2022,04,04,18,03,11.30
2022,04,04,18,04,11.30
2022,04,04,18,05,20.90
2022,04,04,18,06,25.70
2022,04,04,18,07,35.40
2022,04,04,18,08,22.50
2022,04,04,18,09,19.30
2022,04,04,18,10,14.50
2022,04,04,18,11,25.70